Wind_Speed
18 11 4 5 6 9 7 8 7 3 4 7 11 11 9 12 13 7 16 16 19 19 17 17 20 22 21 18 17 14 13 14 14 13 14 13 13 13 13 13 12 11 11
14 6 1 5 2 11 10 3 6 1 4 9 12 12 14 12 13 9 12 19 20 17 16 15 16 22 22 20 18 17 16 15 14 14 13 13 13 13 13 13 12 11 11
9 8 4 6 3 3 8 7 6 4 4 8 10 12 12 9 11 13 11 13 18 18 17 16 15 18 21 21 20 19 18 16 16 16 16 15 14 13 13 12 12 11 12
6 7 3 10 6 3 3 5 8 7 2 7 12 13 16 16 14 12 10 17 16 18 18 15 15 15 18 19 19 18 18 19 18 18 17 16 15 14 13 12 11 10 10
14 10 8 7 5 4 7 2 2 3 4 10 6 11 15 18 20 14 13 16 19 17 15 14 16 17 18 18 18 17 19 19 19 18 17 16 15 14 13 12 11 10 9
12 11 8 5 6 7 2 4 2 1 4 9 13 9 4 12 16 19 14 14 18 17 19 12 13 19 19 19 17 17 19 21 21 19 18 17 16 15 14 13 12 11 11
13 7 6 8 8 9 8 4 3 6 3 7 7 3 3 12 9 17 15 17 16 16 16 18 16 18 14 16 17 17 18 19 21 21 20 19 17 16 15 14 13 13 12
12 9 10 9 10 6 5 7 7 6 7 6 4 3 1 3 3 11 6 4 11 9 18 13 20 19 12 12 16 18 18 18 20 22 21 19 18 17 16 15 15 15 14
12 12 13 11 12 10 8 7 6 10 9 8 3 3 0 4 3 5 2 2 4 16 15 8 14 17 12 10 13 17 18 18 18 21 22 19 18 17 16 16 16 15 15
17 14 15 15 15 13 12 11 8 5 10 8 8 4 13 8 3 3 1 0 6 10 8 5 10 11 5 16 14 14 14 16 19 19 21 19 18 18 17 16 16 16 16
16 15 15 18 16 16 14 14 13 10 10 8 7 12 14 11 5 3 2 1 11 13 10 8 12 8 10 20 16 24 19 16 15 19 22 20 19 20 17 16 16 16 16
16 19 20 19 20 20 17 14 17 14 11 13 12 13 14 8 6 3 4 7 5 6 6 3 8 12 13 24 20 22 20 21 24 18 21 20 19 20 18 17 16 17 17
15 17 19 24 23 20 21 20 18 17 17 15 13 14 12 15 14 13 9 3 5 9 4 11 13 20 22 24 25 23 25 22 26 21 20 18 18 18 17 17 17 17 18
20 16 15 16 24 22 21 20 20 21 22 21 19 18 19 18 18 17 14 8 4 3 9 11 8 23 18 19 39 23 22 24 24 22 20 19 18 18 15 17 17 18 19
23 21 23 21 16 21 22 22 21 22 21 21 21 19 21 23 23 22 22 20 9 3 3 7 6 15 24 25 14 18 27 26 22 20 20 19 19 18 14 15 16 18 19
21 21 19 18 15 21 22 21 23 23 24 23 23 23 23 22 22 24 23 19 10 5 2 2 3 16 24 32 14 19 24 21 17 19 19 18 16 16 15 14 14 15 18
20 21 20 18 17 17 21 21 23 24 26 26 25 24 23 22 21 21 25 27 22 11 2 2 6 15 18 17 19 17 19 19 16 17 19 19 17 15 15 15 14 14 16
12 17 18 19 22 22 21 22 24 27 28 29 29 28 27 25 25 25 25 26 26 23 9 5 3 3 9 13 14 14 17 16 15 16 16 19 23 18 15 15 15 15 15
7 9 8 12 17 20 22 23 24 24 26 27 29 27 29 27 24 28 30 30 28 26 18 12 12 9 10 9 10 16 15 17 14 15 16 13 18 21 18 16 16 15 15
15 14 13 14 18 19 19 21 23 25 26 27 28 29 29 29 29 30 30 30 29 28 26 20 20 22 18 16 10 15 19 22 20 18 14 13 18 22 22 23 21 18 17
14 13 14 16 18 18 17 14 18 21 25 27 29 29 29 29 29 31 31 32 31 31 30 25 19 15 20 18 17 18 15 18 18 16 13 17 19 22 22 26 29 26 23
15 15 15 16 18 18 17 16 19 23 21 20 25 31 31 29 29 30 32 34 32 29 29 25 21 19 21 18 20 21 16 14 5 18 23 26 21 28 22 26 30 30 24
18 18 17 17 17 17 17 18 17 18 20 22 23 23 25 26 28 31 32 34 36 36 34 30 28 25 25 28 24 20 20 18 18 13 11 16 15 21 23 27 28 22 23
21 20 20 19 19 20 18 17 16 16 19 21 23 23 26 28 28 30 31 34 34 36 39 37 37 34 33 31 20 15 13 17 16 17 16 14 22 27 25 25 20 19 16
25 25 24 22 20 23 22 22 19 19 21 23 21 21 24 28 29 29 31 34 33 37 35 34 36 40 37 34 31 26 24 20 12 18 21 24 26 26 23 25 24 19 16
22 22 25 26 25 25 26 23 20 19 21 22 20 21 22 24 29 30 30 33 29 37 31 31 30 33 37 40 35 34 30 20 14 6 19 17 24 21 9 19 25 25 23
Wind_Direction
181 187 293 241 263 270 269 272 270 248 217 229 224 255 247 231 226 247 219 221 222 221 220 214 211 211 214 215 215 219 226 231 230 230 231 231 234 234 237 242 250 250 257
166 150 88 118 207 252 247 281 21 212 258 244 226 230 247 239 227 241 236 236 225 226 223 221 220 214 215 220 224 228 238 234 230 238 233 233 232 233 239 242 244 248 251
181 205 193 337 300 260 243 290 334 0 289 275 264 246 247 248 236 234 231 216 220 221 223 223 221 215 216 219 225 236 238 229 228 236 234 235 237 237 239 242 245 245 243
190 233 255 274 239 316 316 270 302 105 99 226 239 234 235 233 236 230 224 232 233 229 224 230 229 226 221 224 230 237 230 232 230 235 230 231 234 234 234 235 240 244 245
203 221 238 284 251 313 233 207 260 211 261 286 225 230 231 236 233 229 219 237 247 244 229 230 235 230 228 231 234 234 234 238 237 236 232 231 234 235 235 235 237 242 248
198 231 237 260 243 297 265 330 247 294 292 285 294 303 211 256 260 225 224 222 242 246 247 244 237 237 229 236 239 236 237 242 244 240 237 236 236 236 234 231 234 234 237
198 209 252 269 293 279 268 271 306 299 311 351 304 196 25 279 255 241 257 247 243 240 229 251 243 239 236 237 237 231 237 243 248 246 241 240 237 236 238 235 235 234 233
201 220 222 262 266 330 358 244 265 310 304 319 23 121 330 238 233 226 300 285 266 299 231 246 240 239 231 239 247 241 234 233 246 249 243 240 238 236 236 236 236 237 235
225 227 231 253 259 269 289 302 276 262 275 298 321 197 60 234 250 227 221 195 157 251 272 267 240 241 245 257 267 261 251 246 236 244 246 240 239 235 234 235 235 237 236
228 240 238 244 253 260 265 282 300 294 261 269 297 267 307 238 180 340 107 128 229 186 195 99 186 195 90 334 274 263 255 243 245 239 245 241 240 237 233 235 236 238 239
236 236 241 238 246 251 260 263 267 279 275 283 299 319 329 338 194 149 281 220 217 212 214 190 199 191 271 311 288 268 261 256 237 236 237 236 237 237 232 234 237 240 241
239 241 243 238 242 246 251 253 265 282 273 275 268 285 295 298 293 225 248 241 242 255 295 232 184 168 222 263 246 234 234 250 250 230 232 230 230 235 234 235 238 241 242
264 258 252 247 241 240 249 254 257 264 269 267 271 272 275 284 307 324 321 267 227 238 262 232 217 202 222 216 230 236 239 250 231 227 225 228 230 232 234 235 236 240 243
259 261 260 259 240 245 252 251 258 263 262 263 261 265 271 273 280 293 309 312 309 271 238 245 227 209 203 218 223 245 241 231 220 225 229 230 233 237 242 244 245 245 248
261 263 261 263 252 248 249 256 256 262 262 263 261 261 262 267 276 284 286 296 281 275 241 257 155 187 193 184 211 228 227 219 220 227 233 237 238 239 246 247 250 250 251
257 265 264 267 265 259 254 256 256 261 263 261 258 260 260 261 263 270 276 293 316 259 249 320 146 177 202 207 192 188 218 215 218 230 236 237 240 242 245 247 254 252 250
263 260 262 269 267 261 265 270 263 262 262 262 262 261 263 260 262 264 263 268 280 302 215 334 52 181 188 189 184 202 215 216 237 247 248 248 240 245 248 248 249 251 252
255 258 262 262 259 261 259 259 262 264 266 269 268 264 265 264 254 257 259 261 265 270 276 275 257 223 213 217 225 226 212 223 254 264 264 265 241 244 248 255 253 251 254
282 264 269 276 274 270 263 262 262 262 263 265 267 265 268 269 262 255 256 258 258 260 252 247 278 273 267 270 255 234 226 236 249 265 270 256 232 239 248 254 257 256 256
294 282 278 273 278 277 276 272 269 267 264 263 263 262 261 263 263 263 261 260 263 260 255 250 250 258 268 275 271 239 228 236 249 250 256 252 241 242 249 259 258 257 255
304 293 288 285 282 282 284 289 285 279 277 273 269 267 263 259 262 261 256 259 263 258 258 256 254 243 252 263 254 253 253 248 235 245 249 262 266 252 251 260 259 253 253
303 300 301 298 290 289 293 294 277 286 287 285 281 269 264 262 260 257 256 254 257 255 247 245 251 245 252 249 250 250 245 234 249 246 258 255 277 257 265 257 260 253 257
326 311 302 297 297 293 294 297 294 290 290 287 280 282 277 263 263 258 257 255 252 253 254 251 244 242 245 241 243 238 241 235 244 245 238 256 250 254 266 266 262 260 262
327 319 312 303 301 295 293 293 297 284 287 286 286 283 275 275 271 260 259 261 253 251 250 247 246 251 253 248 233 230 234 243 254 256 256 251 266 262 262 262 256 258 245
312 312 312 309 302 298 297 296 292 289 290 291 287 284 278 276 273 271 257 255 258 260 258 256 255 255 254 248 245 250 241 232 229 239 245 244 254 257 262 264 262 249 247
299 302 301 299 295 290 296 298 296 289 287 289 294 295 296 286 280 269 258 251 244 247 246 249 253 251 251 247 244 247 243 230 227 229 248 237 245 247 257 263 258 254 254
Height
842 844 843 842 842 840 840 841 841 841 843 844 845 845 846 846 846 846 847 848 848 848 848 848 850 852 853 855 856 857 859 861 863 864 864 865 867 867 868 870 871 871 872
844 842 840 839 839 839 841 842 840 841 842 844 844 845 844 842 842 842 842 844 846 847 847 846 846 848 851 853 854 855 855 857 859 860 862 862 863 864 865 866 867 868 869
840 841 840 837 840 838 839 841 842 843 843 844 844 843 841 838 838 838 840 843 844 843 841 841 843 845 847 849 851 853 854 855 856 857 858 860 860 860 861 863 863 864 865
838 839 840 837 837 836 838 842 842 842 841 840 840 838 837 837 836 838 841 842 841 840 842 845 846 847 848 849 850 852 853 854 855 854 855 857 857 858 858 859 860 861 861
837 838 840 838 837 837 839 842 840 841 840 838 837 837 836 834 835 837 838 838 838 838 841 842 845 845 846 846 847 849 851 853 854 853 853 853 854 854 854 855 856 857 858
836 836 837 838 837 838 838 839 838 841 838 835 835 837 836 836 836 837 835 836 835 837 838 839 840 842 842 843 844 846 848 851 851 851 851 852 852 853 852 851 853 854 855
835 835 835 836 836 837 838 836 835 836 836 834 833 834 830 833 833 834 834 834 832 831 831 834 838 840 841 841 840 841 844 847 849 850 849 850 850 850 851 850 851 851 851
833 833 834 835 836 836 836 836 834 834 833 834 834 835 835 831 830 832 831 830 826 829 834 830 833 837 839 840 840 839 838 840 846 849 849 847 847 846 847 847 847 848 849
830 831 832 833 834 834 835 835 834 833 831 832 831 832 836 836 831 828 828 824 824 821 829 834 834 838 839 837 839 838 837 838 840 845 848 846 846 844 844 844 844 845 845
827 829 830 831 832 833 834 834 835 834 834 832 831 829 828 825 827 829 827 822 822 825 830 830 832 833 837 839 838 835 833 833 836 840 844 843 843 842 840 840 841 842 843
824 825 827 829 829 830 832 832 832 834 833 832 830 828 824 822 822 824 826 825 824 824 827 827 829 835 835 835 833 831 830 831 831 835 839 840 840 839 836 836 836 838 839
821 822 822 824 825 826 827 828 830 830 829 830 829 829 828 825 822 824 824 821 822 821 821 821 829 830 829 825 828 823 826 828 831 833 836 836 836 836 833 833 833 835 836
817 818 816 819 820 822 823 824 825 827 827 829 828 828 827 825 821 819 818 816 816 817 817 820 824 827 826 822 825 826 827 826 828 831 833 833 833 832 829 828 829 830 831
812 812 812 813 816 818 818 819 820 820 821 823 824 824 823 823 822 819 819 817 816 813 815 815 817 822 823 823 826 830 826 823 826 828 830 830 830 829 825 825 826 828 829
806 807 808 810 812 813 814 815 815 815 817 817 816 817 818 818 817 817 816 816 816 817 814 810 814 814 819 818 815 818 821 821 823 825 826 825 825 823 820 821 822 824 826
803 803 804 805 807 809 810 810 811 810 813 813 813 813 813 813 813 813 812 811 812 812 813 807 809 810 812 814 812 815 817 818 819 821 820 820 819 817 815 816 817 818 820
798 800 800 800 800 802 803 803 804 805 807 805 807 807 809 810 809 809 807 806 808 811 808 805 806 807 810 811 812 812 814 815 815 814 814 814 812 812 812 812 811 813 815
793 794 795 795 795 796 796 797 798 799 799 800 799 800 801 802 803 804 803 801 802 805 805 804 802 806 808 808 808 807 809 810 809 809 809 807 808 808 809 809 809 809 810
790 788 790 790 790 790 790 790 791 792 792 792 791 792 793 794 795 796 796 796 797 798 800 800 799 798 800 801 803 801 802 803 803 804 803 802 802 803 804 805 806 806 807
787 786 786 785 786 785 784 785 785 785 785 784 784 784 785 787 788 789 789 790 790 791 792 793 795 794 793 794 796 797 797 797 797 798 797 796 796 798 799 802 802 803 802
785 784 783 782 782 780 779 780 780 780 779 778 778 777 777 778 780 782 783 782 783 783 783 784 786 787 785 787 791 793 792 791 791 792 791 790 790 792 792 795 797 797 797
782 781 780 778 778 776 775 776 776 775 775 774 773 772 772 772 772 773 775 775 775 775 775 776 777 778 777 781 785 785 786 784 786 786 785 783 784 783 785 788 790 791 792
779 778 776 775 773 772 771 771 771 770 769 768 768 767 766 766 765 766 766 767 767 767 768 769 769 770 771 773 777 777 777 778 779 781 781 779 781 781 782 783 784 784 785
778 775 773 771 769 766 766 766 766 765 764 762 762 762 761 760 760 760 760 759 758 759 760 763 762 762 764 767 769 772 774 776 777 777 778 777 776 776 777 778 779 779 779
775 772 769 766 765 762 762 762 761 760 757 756 756 755 754 753 752 753 753 751 750 750 752 753 754 756 757 761 765 768 770 772 772 772 773 773 771 771 772 772 773 774 775
771 768 765 762 760 758 755 755 755 754 752 751 750 749 748 746 745 746 745 744 742 738 743 745 746 749 750 752 755 759 762 763 766 765 766 767 766 769 768 767 767 767 769